Location: Camp Schieffellin
(6.2213°N, 10.5405°W)
Time: 07:26:19
(UTC+00:00)

Daily predictions for brighter satellites

Satellite Brightness Start Highest point End
(mag) Time Altitude Azimuth Time Altitude Azimuth Time Altitude Azimuth
CZ-4C R/B 3.3 19:03:33 10° NNW 19:11:56 80° ENE 19:20:24 10° SSE
Cosmos 1943 Rocket 2.2 19:06:51 10° NNW 19:12:24 86° ENE 19:17:54 10° SSE
Meteor 2-2 Rocket 4.4 19:06:46 10° N 19:12:27 90° W 19:18:16 10° S
Ariane H10+ 3.3 19:12:44 10° WSW 19:15:56 70° S 19:28:07 10° E
Cosmos 1633 3.9 19:17:23 10° SE 19:19:57 19° E 19:22:29 10° NE
Cosmos 1766 Rocket 3.5 19:16:59 10° S 19:21:25 75° E 19:25:52 10° N
YAOGAN 1 3.2 19:20:52 10° SE 19:24:50 36° ENE 19:28:48 10° N
FALCON 9 DEB 4.0 19:22:29 10° SW 19:25:53 55° NW 19:29:17 10° NNE
Yuri Rocket 3.3 19:23:33 10° WSW 19:28:29 71° NNW 19:32:38 10° NE
Cosmos 304 Rocket 3.7 19:25:49 10° N 19:30:35 83° ENE 19:35:22 10° SSE
Cosmos 1346 Rocket 2.8 19:28:43 10° S 19:32:39 84° W 19:36:36 10° N
Cosmos 1408 Rocket 3.5 19:35:28 10° S 19:39:52 65° E 19:44:17 10° NNE
COSMOS 2406 3.4 19:35:55 10° S 19:41:29 51° ESE 19:47:01 10° NNE
Cosmos 2366 rocket 4.3 19:37:48 10° SSE 19:43:48 46° E 19:49:44 10° NNE
Cosmos 1743 Rocket 4.3 19:40:00 10° SSE 19:43:49 29° E 19:47:39 10° NNE
Okean-O 3.2 19:41:33 10° S 19:45:54 61° WSW 19:50:15 10° NNW
GOES 2 Rocket 4.4 19:41:12 10° WNW 19:47:43 85° SSW 19:54:41 17° ESE
GPS 2-15 Rocket1 4.1 19:45:51 10° SW 19:49:53 29° SSE 19:51:58 21° ESE
Abrixas rocket 2.4 19:52:48 10° NNW 19:55:30 40° NE 19:56:07 34° E
CZ-2C R/B 3.2 19:50:40 10° SSE 19:55:35 46° ENE 20:00:16 10° N
SL-8 Rocket 3.9 19:49:57 10° S 19:56:07 84° E 20:02:16 10° N
CSL-04 Rocket 3.6 19:50:52 10° SSE 19:56:08 61° ENE 20:01:21 10° N
HJ-1C 3.7 19:54:24 22° SE 19:56:11 43° E 19:59:22 10° N
Cosmos 2341 Rocket 4.4 19:50:08 10° SSW 19:56:16 66° W 20:02:25 10° N
Cosmos 2082 Rocket 3.3 19:52:23 10° SSE 19:56:41 22° ESE 20:00:56 10° NE
H-2A R/B 3.4 19:58:47 10° W 20:00:58 17° NW 20:02:22 10° N
CZ-4 R/B 2.6 19:59:03 10° S 20:02:40 40° W 20:06:18 10° NNW
Cosmos 1500 Rocket 3.6 19:59:00 10° S 20:03:13 53° E 20:07:24 10° NNE
Ariane Rocket 4.1 20:07:49 24° ENE 20:07:49 24° ENE 20:11:46 10° NNE
CZ-2C R/B 4.3 20:04:02 10° NE 20:07:52 32° E 20:07:52 32° E
SJ-11-01 4.2 20:04:16 15° SSE 20:08:05 64° ENE 20:12:44 10° N
MOS 1 Rocket 4.2 20:04:56 10° N 20:10:07 57° WNW 20:15:05 10° SSW
TRAILBLAZER 4.5 20:06:41 10° NNW 20:11:12 72° ENE 20:13:12 33° SE
Cosmos 407 Rocket 3.8 20:07:40 10° S 20:12:41 42° ESE 20:17:42 10° NNE
ARGOS 3.5 20:10:54 29° SE 20:13:03 43° ENE 20:18:07 10° N
ARIANE DEB (SPELDA) 4.2 20:16:05 10° SSW 20:16:18 11° SSW 20:16:18 11° SSW
Cosmos 2369 Rocket 4.2 20:19:38 10° NW 20:24:14 26° WSW 20:28:51 10° SSW
USA 238 DEB 3.7 20:18:28 10° S 20:24:45 48° ESE 20:31:00 10° NE
USA 238 3.7 20:18:37 10° S 20:24:51 47° ESE 20:31:06 10° NE
H-2A R/B 2.0 20:22:57 20° SSE 20:26:45 89° ENE 20:31:58 10° NNW
Cosmos 1331 Rocket 4.4 20:21:59 10° NNW 20:27:05 62° WSW 20:30:56 18° S
Cosmos 1328 Rocket 3.5 20:29:32 10° N 20:33:58 82° W 20:34:58 53° S
CZ-2C R/B 3.2 20:30:52 10° N 20:35:58 57° WNW 20:41:11 10° SSW
Cosmos 1140 Rocket 4.5 20:40:41 32° NE 20:40:41 32° NE 20:43:32 10° NNE
SL-08 RB Rocket 4.3 20:41:54 46° NNE 20:41:54 46° NNE 20:45:17 10° N
Cosmos 1933 4.0 20:37:41 10° NNW 20:41:40 53° W 20:42:22 46° SW
Cosmos 1339 Rocket 4.3 20:37:47 10° N 20:44:03 77° E 20:45:37 53° SSE
Cosmos 1833 Rocket 3.5 20:41:53 10° SSW 20:47:16 49° WNW 20:52:39 10° N
Cosmos 1867 4.0 20:48:32 10° SSW 20:53:50 61° WNW 20:59:10 10° NNE
ISS -0.7 20:58:16 10° NW 20:58:47 14° NW 20:58:47 14° NW
NOSS 3-2 (A) 4.2 21:14:54 10° SW 21:23:48 17° N 21:25:12 10° N
ATLAS 5 CENTAUR R/B 3.4 21:20:28 10° WSW 21:45:10 - ENE 21:21:31 22° WSW
ARIANE 5 DEB (SYLDA) 4.2 21:16:28 10° W 21:29:03 56° WSW 21:29:03 56° WSW
Cosmos 2082 Rocket 4.1 21:35:45 10° SW 21:40:27 26° WNW 21:45:09 10° NNW
ATLAS 2A CENTAUR R/B 4.2 20:49:40 10° WSW 21:42:02 76° NNW 21:45:13 56° NE
